CARTOSAT 3

导读

CARTOSAT 3是印度空间研究组织研制的先进测绘卫星,于2019年11月27日发射升空。该卫星具备超高分辨率成像能力,空间分辨率可达0.25米,主要用于提供高精度测绘数据,支持城市规划、基础设施建设、资源勘测及国土监测等任务,也可服务于国防侦察需求,是印度Cartosat系列测绘卫星中技术性能最先进的型号之一,大幅提升了印度自主高分辨率对地观测能力。

基本信息
目录编号:
44804
目录名称:
CARTOSAT 3
国际标识:
2019-081A
轨道中心:
EARTH
卫星名称:
CARTOSAT 3
卫星全名:
--
卫星状态:
在轨 (已飞行2398 天)
发射日期:
2019-11-27 UTC
国别 :
印度 (IN)
星等 :
--
轨道信息
数据来源 国际轨道数据
星历时间: 2026-06-21T12:11:54+0800
6小时前
查看轨道信息
半长轴: 6886.075km
偏心率: 0.0013546
轨道倾角: 97.430°
近地点辐角 136.039°
升交点赤经 233.978°
平近点角 224.192°
近地点: 498.61km
远地点: 517.266km
周期: 94.780分钟
每日圈数: 15.193057
详细信息
使用方式:
暂无
2D轨道图
3D轨道图
轨道高度分析图
轨道倾角分析图
轨道综合分析图
查看轨道综合分析图